Regional Weather Roundup
Issued by NWS Green Bay, WI

Home | Current Version | Previous Version | Text Only | Print | Product List | Glossary On
Versions: 1 2 3 4 5 6 7 8 9 10 11 12 13 14 15 16 17 18 19 20 21 22 23 24 25 26 27 28 29 30 31 32 33 34 35 36 37 38 39 40 41 42 43 44 45 46 47 48 49 50
000
ASUS43 KGRB 221711
RWRGRB

NORTH-CENTRAL AND NORTHEAST WISCONSIN REGIONAL WEATHER ROUNDUP
NATIONAL WEATHER SERVICE GREEN BAY WI
1200 PM CDT MON MAY 22 2017

WIZ005-009-010>012-018-019-221800-
NORTH CENTRAL WISCONSIN

CITY           SKY/WX    TMP DP  RH WIND       PRES   REMARKS
IRONWOOD       CLOUDY    52  43  71 W14       29.77S
MANITOWISH WTR CLOUDY    48  44  85 SW8       29.78F
ARBOR VITAE    PTSUNNY   52  43  73 SW12G18   29.79S
EAGLE RIVER    CLOUDY    51  39  64 SW14G20   29.79S
LAND O LAKES   CLOUDY    51  40  66 W9        29.80S
RHINELANDER    CLOUDY    54  41  61 W10G20    29.81F
PHILLIPS       CLOUDY    49  43  79 SW8       29.80S
ANTIGO         PTSUNNY   54  43  65 W15G24    29.83F
TOMAHAWK       CLOUDY    53  40  61 W7        29.81F
MERRILL        CLOUDY    55  42  61 W15G23    29.83S
$$

WIZ013-073-221800-
NORTHEAST WISCONSIN

CITY           SKY/WX    TMP DP  RH WIND       PRES   REMARKS
IRON MOUNTAIN  CLOUDY    54  40  59 W13G20    29.79S
MARINETTE      NOT AVBL
OCONTO         PTSUNNY   60  42  52 W18G26    29.84F
$$

WIZ017-030-035>037-045-221800-
CENTRAL WISCONSIN

CITY           SKY/WX    TMP DP  RH WIND       PRES   REMARKS
MEDFORD        PTSUNNY   55  42  62 SW9G23    29.82S
WAUSAU         PTSUNNY   58  42  55 W15G24    29.82F
MOSINEE        MOSUNNY   59  43  55 SW16G24   29.85F
MARSHFIELD     SUNNY     61  44  53 W14G23    29.83F
WISC RAPIDS    SUNNY     63  44  50 W14G21    29.86F
STEVENS POINT  PTSUNNY   59  40  50 SW13G22   29.85F
WAUPACA        MOSUNNY   64  43  45 SW12      29.87F
SHAWANO        PTSUNNY   61  42  50 W12G18    29.85F
CLINTONVILLE   CLOUDY    59  41  51 W9        29.85F
WAUTOMA        SUNNY     63  45  51 SW9G18    29.87F
$$

WIZ038-039-048-051-221800-
FOX VALLEY

CITY           SKY/WX    TMP DP  RH WIND       PRES   REMARKS
NWS GREEN BAY  PTSUNNY   61  46  57 SW15G21   29.87F
APPLETON       PTSUNNY   61  43  51 SW17      29.86F
OSHKOSH        MOSUNNY   61  44  53 SW12G25   29.87F
FOND DU LAC    MOSUNNY   63  45  51 SW17G25   29.89F
$$

WIZ022-050-052-221800-
EAST CENTRAL WISCONSIN

CITY           SKY/WX    TMP DP  RH WIND       PRES   REMARKS
EPHRAIM        PTSUNNY   56  44  65 W10G20    29.83F
WASHINGTON ISL CLOUDY    53  43  68 SW15      29.83S
STURGEON BAY   PTSUNNY   57  44  62 W16G24    29.86S
MANITOWOC      SUNNY     60  42  51 W17       29.89F
SHEBOYGAN      PTSUNNY   62  47  57 SW18      29.90S
$$

LMZ563-521-522-541>543-221800-
LAKESHORE

STATION/POSITION TIME  TEMP    WIND        PRES    VSBY  WAVE
                       AIR SEA DIR/SP/G                  HT/PER
                 (UTC) (F)     (DEG/KT/KT) (MB)    (MI)  (FT/S)
SHEBOYGAN LKSHOR 1700   60     230/ 15/ 18 1012.3F
KEWAUNEE LKSHORE 1648   58     290/  9/ 16 1011.0F
NORTHPORT PIER   1630   55     230/ 10/ 18 1010.5R
N MID LAKE BUOY  1650   42 39  200/ 10/ 12 1011.5R         2/ 5
CHAMBERS ISLAND  1640   56     210/  7/ 14 1010.2S
MENOMINEE LKSHOR 1648          260/ 13/ 19 1009.4F
$$




USA.gov is the U.S. government's official web portal to all federal, state and local government web resources and services.